sat.trackr.live / text

‹ back to catalog

CARBONITE 1 (CBNT-1)

NORAD 40718 · 2015-032D

PAYLOAD ACTIVE UNKNOWN

§ Identity

Operator
Country
UK
Launch date
2015-07-10
Launch site
SRILR
Launch vehicle
Mass (kg)
RCS (m²)
0.50

Purposes: earth_obs

External: N2YO · Heavens-Above · Gunter

§ Orbital elements

Epoch: 2026-09-15T22:57:44.188416Z

Period
97.05 min
Inclination
97.6563°
Eccentricity
0.0014618
Mean motion
14.83822590 rev/d
Perigee alt
607.1 km
Apogee alt
627.5 km
Semi-major
6,995.4 km
B*
9.3115e-5
RAAN
73.2733°
Arg perigee
2.4294°
Mean anomaly
357.6989°
Rev number
60,280

§ Raw data

CARBONITE 1 (CBNT-1)1 40718U 15032D   26258.95676144  .00000722  00000+0  93115-4 0  99992 40718  97.6563  73.2733 0014618   2.4294 357.6989 14.83822590602809

JSON: /api/v1/satellites/40718 · /tle

For live sub-satellite position, see the globe view (requires WebGL).

§ Visibility from observer

Set your observer location to see the next 7 days of passes ≥ 10°. The values pass through the URL so the page stays shareable.

No JS? Fill the form by hand. The geolocation button needs JavaScript.

§ Radio — SatNOGS DB

ModeDescriptionDownlinkUplink
BPSK Telemetry 2.240 GHz

1 transmitter · refreshed weekly from db.satnogs.org